Location: ?p Thanh B�nh
(16.5833°N, 107.5333°E)
Time: 10:15:18
(UTC+00:00)

Cosmos 614 Rocket - Pass Details

Date: 29 October 2020
Orbit: 734 x 763 km, 74.1° (Epoch: 23 November)

Event Time Altitude Azimuth Distance (km) Brightness Sun altitude
Rises 21:24:05 0° 203° (SSW) 3,201 7.1 -20.2°
Reaches altitude 10° 21:26:31 10° 208° (SSW) 2,274 6.3 -19.7°
Maximum altitude 21:31:31 52° 284° (WNW) 928 4.0 -18.5°
Drops below altitude 10° 21:36:30 10° 1° (N) 2,259 6.3 -17.3°
Sets 21:38:55 0° 6° (N) 3,179 7.2 -16.7°
